Time,TemperatureF,DewpointF,PressureIn,WindDirection,WindDirectionDegrees,WindSpeedMPH,WindSpeedGustMPH,Humidity,HourlyPrecipIn,Conditions,Clouds,dailyrainin,SoftwareType,DateUTC
2013-11-21 00:00:00,44.1,33.5,30.36,North,0,1.0,6.0,66,0.00,,,0.00,Wunderground PWS Mod,2013-11-21 05:00:00,
2013-11-21 00:05:00,44.1,33.5,30.36,North,0,1.0,6.0,66,0.00,,,0.00,Wunderground PWS Mod,2013-11-21 05:05:00,
2013-11-21 00:10:00,44.1,33.5,30.36,North,0,1.0,6.0,66,0.00,,,0.00,Wunderground PWS Mod,2013-11-21 05:10:00,
2013-11-21 00:15:00,44.1,33.5,30.36,North,0,1.0,6.0,66,0.00,,,0.00,Wunderground PWS Mod,2013-11-21 05:15:00,
2013-11-21 00:20:00,44.1,33.5,30.36,North,0,1.0,6.0,66,0.00,,,0.00,Wunderground PWS Mod,2013-11-21 05:20:00,
2013-11-21 00:25:00,44.1,33.5,30.36,North,0,1.0,6.0,66,0.00,,,0.00,Wunderground PWS Mod,2013-11-21 05:25:00,
2013-11-21 00:30:00,44.1,33.5,30.36,North,0,1.0,6.0,66,0.00,,,0.00,Wunderground PWS Mod,2013-11-21 05:30:00,
2013-11-21 00:35:00,44.1,33.5,30.36,North,0,1.0,6.0,66,0.00,,,0.00,Wunderground PWS Mod,2013-11-21 05:35:00,
2013-11-21 00:40:00,44.1,33.5,30.36,North,0,1.0,6.0,66,0.00,,,0.00,Wunderground PWS Mod,2013-11-21 05:40:00,
2013-11-21 00:45:00,44.3,33.7,30.35,North,0,1.0,6.0,66,0.00,,,0.00,Wunderground PWS Mod,2013-11-21 05:45:00,
2013-11-21 00:50:00,44.3,33.7,30.35,North,0,1.0,6.0,66,0.00,,,0.00,Wunderground PWS Mod,2013-11-21 05:50:00,
2013-11-21 00:55:00,44.3,33.7,30.35,North,0,1.0,6.0,66,0.00,,,0.00,Wunderground PWS Mod,2013-11-21 05:55:00,
2013-11-21 01:00:00,44.3,33.7,30.35,North,0,1.0,6.0,66,0.00,,,0.00,Wunderground PWS Mod,2013-11-21 06:00:00,
2013-11-21 01:05:00,44.3,33.7,30.35,North,0,1.0,6.0,66,0.00,,,0.00,Wunderground PWS Mod,2013-11-21 06:05:00,
2013-11-21 01:10:00,44.3,33.7,30.35,North,0,1.0,6.0,66,0.00,,,0.00,Wunderground PWS Mod,2013-11-21 06:10:00,
2013-11-21 01:15:00,44.5,34.6,30.36,North,10,1.0,6.0,68,0.00,,,0.00,Wunderground PWS Mod,2013-11-21 06:15:00,
2013-11-21 01:20:00,44.5,34.6,30.36,North,10,1.0,6.0,68,0.00,,,0.00,Wunderground PWS Mod,2013-11-21 06:20:00,
2013-11-21 01:25:00,44.5,34.6,30.36,North,10,1.0,6.0,68,0.00,,,0.00,Wunderground PWS Mod,2013-11-21 06:25:00,
2013-11-21 01:30:00,44.5,34.6,30.36,North,10,1.0,6.0,68,0.00,,,0.00,Wunderground PWS Mod,2013-11-21 06:30:00,
2013-11-21 01:35:00,44.5,34.6,30.36,North,10,1.0,6.0,68,0.00,,,0.00,Wunderground PWS Mod,2013-11-21 06:35:00,
2013-11-21 01:40:00,44.5,34.6,30.36,North,10,1.0,6.0,68,0.00,,,0.00,Wunderground PWS Mod,2013-11-21 06:40:00,
2013-11-21 01:45:00,44.6,35.1,30.37,North,0,1.0,7.0,69,0.00,,,0.00,Wunderground PWS Mod,2013-11-21 06:45:00,
2013-11-21 01:50:00,44.6,35.1,30.37,North,0,1.0,7.0,69,0.00,,,0.00,Wunderground PWS Mod,2013-11-21 06:50:00,
2013-11-21 01:55:00,44.6,35.1,30.37,North,0,1.0,7.0,69,0.00,,,0.00,Wunderground PWS Mod,2013-11-21 06:55:00,
2013-11-21 02:00:00,44.6,35.1,30.37,North,0,1.0,7.0,69,0.00,,,0.00,Wunderground PWS Mod,2013-11-21 07:00:00,
2013-11-21 02:05:00,44.6,35.1,30.37,North,0,1.0,7.0,69,0.00,,,0.00,Wunderground PWS Mod,2013-11-21 07:05:00,
2013-11-21 02:10:00,44.6,35.1,30.37,North,0,1.0,7.0,69,0.00,,,0.00,Wunderground PWS Mod,2013-11-21 07:10:00,
2013-11-21 02:15:00,44.6,35.1,30.37,NNE,30,2.0,9.0,69,0.00,,,0.00,Wunderground PWS Mod,2013-11-21 07:15:00,
2013-11-21 02:20:00,44.6,35.1,30.37,NNE,30,2.0,9.0,69,0.00,,,0.00,Wunderground PWS Mod,2013-11-21 07:20:00,
2013-11-21 02:25:00,44.6,35.1,30.37,NNE,30,2.0,9.0,69,0.00,,,0.00,Wunderground PWS Mod,2013-11-21 07:25:00,
2013-11-21 02:30:00,44.6,35.1,30.37,NNE,30,2.0,9.0,69,0.00,,,0.00,Wunderground PWS Mod,2013-11-21 07:30:00,
2013-11-21 02:35:00,44.6,35.1,30.37,NNE,30,2.0,9.0,69,0.00,,,0.00,Wunderground PWS Mod,2013-11-21 07:35:00,
2013-11-21 02:40:00,44.6,35.1,30.37,NNE,30,2.0,9.0,69,0.00,,,0.00,Wunderground PWS Mod,2013-11-21 07:40:00,
2013-11-21 02:45:00,44.6,35.4,30.37,North,0,1.0,7.0,70,0.00,,,0.00,Wunderground PWS Mod,2013-11-21 07:45:00,
2013-11-21 02:50:00,44.6,35.4,30.37,North,0,1.0,7.0,70,0.00,,,0.00,Wunderground PWS Mod,2013-11-21 07:50:00,
2013-11-21 02:55:00,44.6,35.4,30.37,North,0,1.0,7.0,70,0.00,,,0.00,Wunderground PWS Mod,2013-11-21 07:55:00,
2013-11-21 03:00:00,44.6,35.4,30.37,North,0,1.0,7.0,70,0.00,,,0.00,Wunderground PWS Mod,2013-11-21 08:00:00,
2013-11-21 03:05:00,44.6,35.4,30.37,North,0,1.0,7.0,70,0.00,,,0.00,Wunderground PWS Mod,2013-11-21 08:05:00,
2013-11-21 03:10:00,44.6,35.4,30.37,North,0,1.0,7.0,70,0.00,,,0.00,Wunderground PWS Mod,2013-11-21 08:10:00,
2013-11-21 03:15:00,44.9,36.4,30.36,North,0,1.0,9.0,72,0.00,,,0.00,Wunderground PWS Mod,2013-11-21 08:15:00,
2013-11-21 03:20:00,44.9,36.4,30.36,North,0,1.0,9.0,72,0.00,,,0.00,Wunderground PWS Mod,2013-11-21 08:20:00,
2013-11-21 03:25:00,44.9,36.4,30.36,North,0,1.0,9.0,72,0.00,,,0.00,Wunderground PWS Mod,2013-11-21 08:25:00,
2013-11-21 03:30:00,44.9,36.4,30.36,North,0,1.0,9.0,72,0.00,,,0.00,Wunderground PWS Mod,2013-11-21 08:30:00,
2013-11-21 03:35:00,44.9,36.4,30.36,North,0,1.0,9.0,72,0.00,,,0.00,Wunderground PWS Mod,2013-11-21 08:35:00,
2013-11-21 03:40:00,44.9,36.4,30.36,North,0,1.0,9.0,72,0.00,,,0.00,Wunderground PWS Mod,2013-11-21 08:40:00,
2013-11-21 03:45:00,44.9,36.8,30.35,North,10,1.0,9.0,73,0.00,,,0.00,Wunderground PWS Mod,2013-11-21 08:45:00,
2013-11-21 03:50:00,44.9,36.8,30.35,North,10,1.0,9.0,73,0.00,,,0.00,Wunderground PWS Mod,2013-11-21 08:50:00,
2013-11-21 03:55:00,44.9,36.8,30.35,North,10,1.0,9.0,73,0.00,,,0.00,Wunderground PWS Mod,2013-11-21 08:55:00,
2013-11-21 04:00:00,44.9,36.8,30.35,North,10,1.0,9.0,73,0.00,,,0.00,Wunderground PWS Mod,2013-11-21 09:00:00,
2013-11-21 04:05:00,44.9,36.8,30.35,North,10,1.0,9.0,73,0.00,,,0.00,Wunderground PWS Mod,2013-11-21 09:05:00,
2013-11-21 04:10:00,44.9,36.8,30.35,North,10,1.0,9.0,73,0.00,,,0.00,Wunderground PWS Mod,2013-11-21 09:10:00,
2013-11-21 04:15:00,44.6,35.8,30.35,North,0,2.0,8.0,71,0.00,,,0.00,Wunderground PWS Mod,2013-11-21 09:15:00,
2013-11-21 04:20:00,44.6,35.8,30.35,North,0,2.0,8.0,71,0.00,,,0.00,Wunderground PWS Mod,2013-11-21 09:20:00,
2013-11-21 04:25:00,44.6,35.8,30.35,North,0,2.0,8.0,71,0.00,,,0.00,Wunderground PWS Mod,2013-11-21 09:25:00,
2013-11-21 04:30:00,44.6,35.8,30.35,North,0,2.0,8.0,71,0.00,,,0.00,Wunderground PWS Mod,2013-11-21 09:30:00,
2013-11-21 04:35:00,44.6,35.8,30.35,North,0,2.0,8.0,71,0.00,,,0.00,Wunderground PWS Mod,2013-11-21 09:35:00,
2013-11-21 04:40:00,44.6,35.8,30.35,North,0,2.0,8.0,71,0.00,,,0.00,Wunderground PWS Mod,2013-11-21 09:40:00,
2013-11-21 04:45:00,44.1,36.0,30.36,North,0,1.0,9.0,73,0.00,,,0.00,Wunderground PWS Mod,2013-11-21 09:45:00,
2013-11-21 04:50:00,44.1,36.0,30.36,North,0,1.0,9.0,73,0.00,,,0.00,Wunderground PWS Mod,2013-11-21 09:50:00,
2013-11-21 04:55:00,44.1,36.0,30.36,North,0,1.0,9.0,73,0.00,,,0.00,Wunderground PWS Mod,2013-11-21 09:55:00,
2013-11-21 05:00:00,44.1,36.0,30.36,North,0,1.0,9.0,73,0.00,,,0.00,Wunderground PWS Mod,2013-11-21 10:00:00,
2013-11-21 05:05:00,44.1,36.0,30.36,North,0,1.0,9.0,73,0.00,,,0.00,Wunderground PWS Mod,2013-11-21 10:05:00,
2013-11-21 05:10:00,44.1,36.0,30.36,North,0,1.0,9.0,73,0.00,,,0.00,Wunderground PWS Mod,2013-11-21 10:10:00,
2013-11-21 05:15:00,44.2,36.1,30.37,North,0,2.0,9.0,73,0.00,,,0.00,Wunderground PWS Mod,2013-11-21 10:15:00,
2013-11-21 05:20:00,44.2,36.1,30.37,North,0,2.0,9.0,73,0.00,,,0.00,Wunderground PWS Mod,2013-11-21 10:20:00,
2013-11-21 05:25:00,44.2,36.1,30.37,North,0,2.0,9.0,73,0.00,,,0.00,Wunderground PWS Mod,2013-11-21 10:25:00,
2013-11-21 05:30:00,44.2,36.1,30.37,North,0,2.0,9.0,73,0.00,,,0.00,Wunderground PWS Mod,2013-11-21 10:30:00,
2013-11-21 05:35:00,44.2,36.1,30.37,North,0,2.0,9.0,73,0.00,,,0.00,Wunderground PWS Mod,2013-11-21 10:35:00,
2013-11-21 05:40:00,44.2,36.1,30.37,North,0,2.0,9.0,73,0.00,,,0.00,Wunderground PWS Mod,2013-11-21 10:40:00,
2013-11-21 05:45:00,44.1,36.0,30.37,SSE,150,1.0,7.0,73,0.00,,,0.00,Wunderground PWS Mod,2013-11-21 10:45:00,
2013-11-21 05:50:00,44.1,36.0,30.37,SSE,150,1.0,7.0,73,0.00,,,0.00,Wunderground PWS Mod,2013-11-21 10:50:00,
2013-11-21 05:55:00,44.1,36.0,30.37,SSE,150,1.0,7.0,73,0.00,,,0.00,Wunderground PWS Mod,2013-11-21 10:55:00,
2013-11-21 06:00:00,44.1,36.0,30.37,SSE,150,1.0,7.0,73,0.00,,,0.00,Wunderground PWS Mod,2013-11-21 11:00:00,
2013-11-21 06:05:00,44.1,36.0,30.37,SSE,150,1.0,7.0,73,0.00,,,0.00,Wunderground PWS Mod,2013-11-21 11:05:00,
2013-11-21 06:10:00,44.1,36.0,30.37,SSE,150,1.0,7.0,73,0.00,,,0.00,Wunderground PWS Mod,2013-11-21 11:10:00,
2013-11-21 06:15:00,44.1,36.0,30.38,North,0,1.0,6.0,73,0.00,,,0.00,Wunderground PWS Mod,2013-11-21 11:15:00,
2013-11-21 06:20:00,44.1,36.0,30.38,North,0,1.0,6.0,73,0.00,,,0.00,Wunderground PWS Mod,2013-11-21 11:20:00,
2013-11-21 06:25:00,44.1,36.0,30.38,North,0,1.0,6.0,73,0.00,,,0.00,Wunderground PWS Mod,2013-11-21 11:25:00,
2013-11-21 06:30:00,44.1,36.0,30.38,North,0,1.0,6.0,73,0.00,,,0.00,Wunderground PWS Mod,2013-11-21 11:30:00,
2013-11-21 06:35:00,44.1,36.0,30.38,North,0,1.0,6.0,73,0.00,,,0.00,Wunderground PWS Mod,2013-11-21 11:35:00,
2013-11-21 06:40:00,44.1,36.0,30.38,North,0,1.0,6.0,73,0.00,,,0.00,Wunderground PWS Mod,2013-11-21 11:40:00,
2013-11-21 06:45:00,43.9,36.1,30.37,SSE,150,2.0,7.0,74,0.00,,,0.00,Wunderground PWS Mod,2013-11-21 11:45:00,
2013-11-21 06:50:00,43.9,36.1,30.37,SSE,150,2.0,7.0,74,0.00,,,0.00,Wunderground PWS Mod,2013-11-21 11:50:00,
2013-11-21 06:55:00,43.9,36.1,30.37,SSE,150,2.0,7.0,74,0.00,,,0.00,Wunderground PWS Mod,2013-11-21 11:55:00,
2013-11-21 07:00:00,43.9,36.1,30.37,SSE,150,2.0,7.0,74,0.00,,,0.00,Wunderground PWS Mod,2013-11-21 12:00:00,
2013-11-21 07:05:00,43.9,36.1,30.37,SSE,150,2.0,7.0,74,0.00,,,0.00,Wunderground PWS Mod,2013-11-21 12:05:00,
2013-11-21 07:10:00,43.9,36.1,30.37,SSE,150,2.0,7.0,74,0.00,,,0.00,Wunderground PWS Mod,2013-11-21 12:10:00,
2013-11-21 07:15:00,44.1,36.3,30.39,North,0,2.0,11.0,74,0.00,,,0.00,Wunderground PWS Mod,2013-11-21 12:15:00,
2013-11-21 07:20:00,44.1,36.3,30.39,North,0,2.0,11.0,74,0.00,,,0.00,Wunderground PWS Mod,2013-11-21 12:20:00,
2013-11-21 07:25:00,44.1,36.3,30.39,North,0,2.0,11.0,74,0.00,,,0.00,Wunderground PWS Mod,2013-11-21 12:25:00,
2013-11-21 07:30:00,44.1,36.3,30.39,North,0,2.0,11.0,74,0.00,,,0.00,Wunderground PWS Mod,2013-11-21 12:30:00,
2013-11-21 07:35:00,44.1,36.3,30.39,North,0,2.0,11.0,74,0.00,,,0.00,Wunderground PWS Mod,2013-11-21 12:35:00,
2013-11-21 07:40:00,44.1,36.3,30.39,North,0,2.0,11.0,74,0.00,,,0.00,Wunderground PWS Mod,2013-11-21 12:40:00,
2013-11-21 07:45:00,44.6,36.8,30.39,North,10,2.0,7.0,74,0.00,,,0.00,Wunderground PWS Mod,2013-11-21 12:45:00,
2013-11-21 07:50:00,44.6,36.8,30.39,North,10,2.0,7.0,74,0.00,,,0.00,Wunderground PWS Mod,2013-11-21 12:50:00,
2013-11-21 07:55:00,44.6,36.8,30.39,North,10,2.0,7.0,74,0.00,,,0.00,Wunderground PWS Mod,2013-11-21 12:55:00,
2013-11-21 08:00:00,44.6,36.8,30.39,North,10,2.0,7.0,74,0.00,,,0.00,Wunderground PWS Mod,2013-11-21 13:00:00,
2013-11-21 08:05:00,44.6,36.8,30.39,North,10,2.0,7.0,74,0.00,,,0.00,Wunderground PWS Mod,2013-11-21 13:05:00,
2013-11-21 08:10:00,44.6,36.8,30.39,North,10,2.0,7.0,74,0.00,,,0.00,Wunderground PWS Mod,2013-11-21 13:10:00,
2013-11-21 08:15:00,45.1,37.3,30.39,North,0,3.0,11.0,74,0.00,,,0.00,Wunderground PWS Mod,2013-11-21 13:15:00,
2013-11-21 08:20:00,45.1,37.3,30.39,North,0,3.0,11.0,74,0.00,,,0.00,Wunderground PWS Mod,2013-11-21 13:20:00,
2013-11-21 08:25:00,45.1,37.3,30.39,North,0,3.0,11.0,74,0.00,,,0.00,Wunderground PWS Mod,2013-11-21 13:25:00,
2013-11-21 08:30:00,45.1,37.3,30.39,North,0,3.0,11.0,74,0.00,,,0.00,Wunderground PWS Mod,2013-11-21 13:30:00,
2013-11-21 08:35:00,45.1,37.3,30.39,North,0,3.0,11.0,74,0.00,,,0.00,Wunderground PWS Mod,2013-11-21 13:35:00,
2013-11-21 08:40:00,45.1,37.3,30.39,North,0,3.0,11.0,74,0.00,,,0.00,Wunderground PWS Mod,2013-11-21 13:40:00,
2013-11-21 08:45:00,46.1,37.6,30.40,North,0,2.0,11.0,72,0.00,,,0.00,Wunderground PWS Mod,2013-11-21 13:45:00,
2013-11-21 08:50:00,46.1,37.6,30.40,North,0,2.0,11.0,72,0.00,,,0.00,Wunderground PWS Mod,2013-11-21 13:50:00,
2013-11-21 08:55:00,46.1,37.6,30.40,North,0,2.0,11.0,72,0.00,,,0.00,Wunderground PWS Mod,2013-11-21 13:55:00,
2013-11-21 09:00:00,46.1,37.6,30.40,North,0,2.0,11.0,72,0.00,,,0.00,Wunderground PWS Mod,2013-11-21 14:00:00,
2013-11-21 09:05:00,46.1,37.6,30.40,North,0,2.0,11.0,72,0.00,,,0.00,Wunderground PWS Mod,2013-11-21 14:05:00,
2013-11-21 09:10:00,46.1,37.6,30.40,North,0,2.0,11.0,72,0.00,,,0.00,Wunderground PWS Mod,2013-11-21 14:10:00,
2013-11-21 09:15:00,47.0,38.4,30.40,North,0,4.0,9.0,72,0.00,,,0.00,Wunderground PWS Mod,2013-11-21 14:15:00,
2013-11-21 09:20:00,47.0,38.4,30.40,North,0,4.0,9.0,72,0.00,,,0.00,Wunderground PWS Mod,2013-11-21 14:20:00,
2013-11-21 09:25:00,47.0,38.4,30.40,North,0,4.0,9.0,72,0.00,,,0.00,Wunderground PWS Mod,2013-11-21 14:25:00,
2013-11-21 09:30:00,47.0,38.4,30.40,North,0,4.0,9.0,72,0.00,,,0.00,Wunderground PWS Mod,2013-11-21 14:30:00,
2013-11-21 09:35:00,47.0,38.4,30.40,North,0,4.0,9.0,72,0.00,,,0.00,Wunderground PWS Mod,2013-11-21 14:35:00,
2013-11-21 09:40:00,47.0,38.4,30.40,North,0,4.0,9.0,72,0.00,,,0.00,Wunderground PWS Mod,2013-11-21 14:40:00,
2013-11-21 09:45:00,48.3,39.3,30.41,North,0,3.0,9.0,71,0.00,,,0.00,Wunderground PWS Mod,2013-11-21 14:45:00,
2013-11-21 09:50:00,48.3,39.3,30.41,North,0,3.0,9.0,71,0.00,,,0.00,Wunderground PWS Mod,2013-11-21 14:50:00,
2013-11-21 09:55:00,48.3,39.3,30.41,North,0,3.0,9.0,71,0.00,,,0.00,Wunderground PWS Mod,2013-11-21 14:55:00,
2013-11-21 10:00:00,48.3,39.3,30.41,North,0,3.0,9.0,71,0.00,,,0.00,Wunderground PWS Mod,2013-11-21 15:00:00,
2013-11-21 10:05:00,48.3,39.3,30.41,North,0,3.0,9.0,71,0.00,,,0.00,Wunderground PWS Mod,2013-11-21 15:05:00,
2013-11-21 10:10:00,48.3,39.3,30.41,North,0,3.0,9.0,71,0.00,,,0.00,Wunderground PWS Mod,2013-11-21 15:10:00,
2013-11-21 10:15:00,49.4,40.0,30.40,North,10,1.0,6.0,70,0.00,,,0.00,Wunderground PWS Mod,2013-11-21 15:15:00,
2013-11-21 10:20:00,49.4,40.0,30.40,North,10,1.0,6.0,70,0.00,,,0.00,Wunderground PWS Mod,2013-11-21 15:20:00,
2013-11-21 10:25:00,49.4,40.0,30.40,North,10,1.0,6.0,70,0.00,,,0.00,Wunderground PWS Mod,2013-11-21 15:25:00,
2013-11-21 10:30:00,49.4,40.0,30.40,North,10,1.0,6.0,70,0.00,,,0.00,Wunderground PWS Mod,2013-11-21 15:30:00,
2013-11-21 10:35:00,49.4,40.0,30.40,North,10,1.0,6.0,70,0.00,,,0.00,Wunderground PWS Mod,2013-11-21 15:35:00,
2013-11-21 10:40:00,49.4,40.0,30.40,North,10,1.0,6.0,70,0.00,,,0.00,Wunderground PWS Mod,2013-11-21 15:40:00,
2013-11-21 10:45:00,50.7,40.9,30.39,SSE,150,2.0,8.0,69,0.00,,,0.00,Wunderground PWS Mod,2013-11-21 15:45:00,
2013-11-21 10:50:00,50.7,40.9,30.39,SSE,150,2.0,8.0,69,0.00,,,0.00,Wunderground PWS Mod,2013-11-21 15:50:00,
2013-11-21 10:55:00,50.7,40.9,30.39,SSE,150,2.0,8.0,69,0.00,,,0.00,Wunderground PWS Mod,2013-11-21 15:55:00,
2013-11-21 11:00:00,50.7,40.9,30.39,SSE,150,2.0,8.0,69,0.00,,,0.00,Wunderground PWS Mod,2013-11-21 16:00:00,
2013-11-21 11:05:00,50.7,40.9,30.39,SSE,150,2.0,8.0,69,0.00,,,0.00,Wunderground PWS Mod,2013-11-21 16:05:00,
2013-11-21 11:10:00,50.7,40.9,30.39,SSE,150,2.0,8.0,69,0.00,,,0.00,Wunderground PWS Mod,2013-11-21 16:10:00,
2013-11-21 11:15:00,51.1,41.3,30.38,SSE,150,2.0,8.0,69,0.00,,,0.00,Wunderground PWS Mod,2013-11-21 16:15:00,
2013-11-21 11:20:00,51.1,41.3,30.38,SSE,150,2.0,8.0,69,0.00,,,0.00,Wunderground PWS Mod,2013-11-21 16:20:00,
2013-11-21 11:25:00,51.1,41.3,30.38,SSE,150,2.0,8.0,69,0.00,,,0.00,Wunderground PWS Mod,2013-11-21 16:25:00,
2013-11-21 11:30:00,51.1,41.3,30.38,SSE,150,2.0,8.0,69,0.00,,,0.00,Wunderground PWS Mod,2013-11-21 16:30:00,
2013-11-21 11:35:00,51.1,41.3,30.38,SSE,150,2.0,8.0,69,0.00,,,0.00,Wunderground PWS Mod,2013-11-21 16:35:00,
2013-11-21 11:40:00,51.1,41.3,30.38,SSE,150,2.0,8.0,69,0.00,,,0.00,Wunderground PWS Mod,2013-11-21 16:40:00,
2013-11-21 11:45:00,53.1,42.4,30.36,North,0,3.0,10.0,67,0.00,,,0.00,Wunderground PWS Mod,2013-11-21 16:45:00,
2013-11-21 11:50:00,53.1,42.4,30.36,North,0,3.0,10.0,67,0.00,,,0.00,Wunderground PWS Mod,2013-11-21 16:50:00,
2013-11-21 11:55:00,53.1,42.4,30.36,North,0,3.0,10.0,67,0.00,,,0.00,Wunderground PWS Mod,2013-11-21 16:55:00,
2013-11-21 12:00:00,53.1,42.4,30.36,North,0,3.0,10.0,67,0.00,,,0.00,Wunderground PWS Mod,2013-11-21 17:00:00,
2013-11-21 12:05:00,53.1,42.4,30.36,North,0,3.0,10.0,67,0.00,,,0.00,Wunderground PWS Mod,2013-11-21 17:05:00,
2013-11-21 12:10:00,53.1,42.4,30.36,North,0,3.0,10.0,67,0.00,,,0.00,Wunderground PWS Mod,2013-11-21 17:10:00,
2013-11-21 12:15:00,54.8,43.3,30.36,North,0,2.0,7.0,65,0.00,,,0.00,Wunderground PWS Mod,2013-11-21 17:15:00,
2013-11-21 12:20:00,54.8,43.3,30.36,North,0,2.0,7.0,65,0.00,,,0.00,Wunderground PWS Mod,2013-11-21 17:20:00,
2013-11-21 12:25:00,54.8,43.3,30.36,North,0,2.0,7.0,65,0.00,,,0.00,Wunderground PWS Mod,2013-11-21 17:25:00,
2013-11-21 12:30:00,54.8,43.3,30.36,North,0,2.0,7.0,65,0.00,,,0.00,Wunderground PWS Mod,2013-11-21 17:30:00,
2013-11-21 12:35:00,54.8,43.3,30.36,North,0,2.0,7.0,65,0.00,,,0.00,Wunderground PWS Mod,2013-11-21 17:35:00,
2013-11-21 12:40:00,54.8,43.3,30.36,North,0,2.0,7.0,65,0.00,,,0.00,Wunderground PWS Mod,2013-11-21 17:40:00,
2013-11-21 12:45:00,54.5,43.0,30.35,SSE,150,3.0,7.0,65,0.00,,,0.00,Wunderground PWS Mod,2013-11-21 17:45:00,
2013-11-21 12:50:00,54.5,43.0,30.35,SSE,150,3.0,7.0,65,0.00,,,0.00,Wunderground PWS Mod,2013-11-21 17:50:00,
2013-11-21 12:55:00,54.5,43.0,30.35,SSE,150,3.0,7.0,65,0.00,,,0.00,Wunderground PWS Mod,2013-11-21 17:55:00,
2013-11-21 13:00:00,54.5,43.0,30.35,SSE,150,3.0,7.0,65,0.00,,,0.00,Wunderground PWS Mod,2013-11-21 18:00:00,
2013-11-21 13:05:00,54.5,43.0,30.35,SSE,150,3.0,7.0,65,0.00,,,0.00,Wunderground PWS Mod,2013-11-21 18:05:00,
2013-11-21 13:10:00,54.5,43.0,30.35,SSE,150,3.0,7.0,65,0.00,,,0.00,Wunderground PWS Mod,2013-11-21 18:10:00,
2013-11-21 13:15:00,56.2,43.8,30.33,SSE,150,2.0,9.0,63,0.00,,,0.00,Wunderground PWS Mod,2013-11-21 18:15:00,
2013-11-21 13:20:00,56.2,43.8,30.33,SSE,150,2.0,9.0,63,0.00,,,0.00,Wunderground PWS Mod,2013-11-21 18:20:00,
2013-11-21 13:25:00,56.2,43.8,30.33,SSE,150,2.0,9.0,63,0.00,,,0.00,Wunderground PWS Mod,2013-11-21 18:25:00,
2013-11-21 13:35:00,56.2,43.8,30.33,SSE,150,2.0,9.0,63,0.00,,,0.00,Wunderground PWS Mod,2013-11-21 18:35:00,
2013-11-21 13:40:00,56.2,43.8,30.33,SSE,150,2.0,9.0,63,0.00,,,0.00,Wunderground PWS Mod,2013-11-21 18:40:00,
2013-11-21 13:45:00,57.5,44.1,30.31,SSE,150,2.0,7.0,61,0.00,,,0.00,Wunderground PWS Mod,2013-11-21 18:45:00,
2013-11-21 13:50:00,57.5,44.1,30.31,SSE,150,2.0,7.0,61,0.00,,,0.00,Wunderground PWS Mod,2013-11-21 18:50:00,
2013-11-21 13:55:00,57.5,44.1,30.31,SSE,150,2.0,7.0,61,0.00,,,0.00,Wunderground PWS Mod,2013-11-21 18:55:00,
2013-11-21 14:00:00,57.5,44.1,30.31,SSE,150,2.0,7.0,61,0.00,,,0.00,Wunderground PWS Mod,2013-11-21 19:00:00,
2013-11-21 14:05:00,57.5,44.1,30.31,SSE,150,2.0,7.0,61,0.00,,,0.00,Wunderground PWS Mod,2013-11-21 19:05:00,
2013-11-21 14:10:00,57.5,44.1,30.31,SSE,150,2.0,7.0,61,0.00,,,0.00,Wunderground PWS Mod,2013-11-21 19:10:00,
2013-11-21 14:15:00,58.6,44.8,30.29,NNE,30,2.0,6.0,60,0.00,,,0.00,Wunderground PWS Mod,2013-11-21 19:15:00,
2013-11-21 14:20:00,58.6,44.8,30.29,NNE,30,2.0,6.0,60,0.00,,,0.00,Wunderground PWS Mod,2013-11-21 19:20:00,
2013-11-21 14:25:00,58.6,44.8,30.29,NNE,30,2.0,6.0,60,0.00,,,0.00,Wunderground PWS Mod,2013-11-21 19:25:00,
2013-11-21 14:30:00,58.6,44.8,30.29,NNE,30,2.0,6.0,60,0.00,,,0.00,Wunderground PWS Mod,2013-11-21 19:30:00,
2013-11-21 14:35:00,58.6,44.8,30.29,NNE,30,2.0,6.0,60,0.00,,,0.00,Wunderground PWS Mod,2013-11-21 19:35:00,
2013-11-21 14:40:00,58.6,44.8,30.29,NNE,30,2.0,6.0,60,0.00,,,0.00,Wunderground PWS Mod,2013-11-21 19:40:00,
2013-11-21 14:45:00,60.5,45.6,30.29,NNE,20,1.0,6.0,58,0.00,,,0.00,Wunderground PWS Mod,2013-11-21 19:45:00,
2013-11-21 14:50:00,60.5,45.6,30.29,NNE,20,1.0,6.0,58,0.00,,,0.00,Wunderground PWS Mod,2013-11-21 19:50:00,
2013-11-21 14:55:00,60.5,45.6,30.29,NNE,20,1.0,6.0,58,0.00,,,0.00,Wunderground PWS Mod,2013-11-21 19:55:00,
2013-11-21 15:00:00,60.5,45.6,30.29,NNE,20,1.0,6.0,58,0.00,,,0.00,Wunderground PWS Mod,2013-11-21 20:00:00,
2013-11-21 15:05:00,60.5,45.6,30.29,NNE,20,1.0,6.0,58,0.00,,,0.00,Wunderground PWS Mod,2013-11-21 20:05:00,
2013-11-21 15:10:00,60.5,45.6,30.29,NNE,20,1.0,6.0,58,0.00,,,0.00,Wunderground PWS Mod,2013-11-21 20:10:00,
2013-11-21 15:15:00,60.9,46.0,30.29,NE,50,1.0,5.0,58,0.00,,,0.00,Wunderground PWS Mod,2013-11-21 20:15:00,
2013-11-21 15:20:00,60.9,46.0,30.29,NE,50,1.0,5.0,58,0.00,,,0.00,Wunderground PWS Mod,2013-11-21 20:20:00,
2013-11-21 15:25:00,60.9,46.0,30.29,NE,50,1.0,5.0,58,0.00,,,0.00,Wunderground PWS Mod,2013-11-21 20:25:00,
2013-11-21 15:30:00,60.9,46.0,30.29,NE,50,1.0,5.0,58,0.00,,,0.00,Wunderground PWS Mod,2013-11-21 20:30:00,
2013-11-21 15:35:00,60.9,46.0,30.29,NE,50,1.0,5.0,58,0.00,,,0.00,Wunderground PWS Mod,2013-11-21 20:35:00,
2013-11-21 15:40:00,60.9,46.0,30.29,NE,50,1.0,5.0,58,0.00,,,0.00,Wunderground PWS Mod,2013-11-21 20:40:00,
2013-11-21 15:45:00,61.2,46.3,30.29,NE,50,1.0,4.0,58,0.00,,,0.00,Wunderground PWS Mod,2013-11-21 20:45:00,
2013-11-21 15:50:00,61.2,46.3,30.29,NE,50,1.0,4.0,58,0.00,,,0.00,Wunderground PWS Mod,2013-11-21 20:50:00,
2013-11-21 15:55:00,61.2,46.3,30.29,NE,50,1.0,4.0,58,0.00,,,0.00,Wunderground PWS Mod,2013-11-21 20:55:00,
2013-11-21 16:00:00,61.2,46.3,30.29,NE,50,1.0,4.0,58,0.00,,,0.00,Wunderground PWS Mod,2013-11-21 21:00:00,
2013-11-21 16:05:00,61.2,46.3,30.29,NE,50,1.0,4.0,58,0.00,,,0.00,Wunderground PWS Mod,2013-11-21 21:05:00,
2013-11-21 16:10:00,61.2,46.3,30.29,NE,50,1.0,4.0,58,0.00,,,0.00,Wunderground PWS Mod,2013-11-21 21:10:00,
2013-11-21 16:15:00,60.7,46.7,30.30,NE,40,0.0,3.0,60,0.00,,,0.00,Wunderground PWS Mod,2013-11-21 21:15:00,
2013-11-21 16:20:00,60.7,46.7,30.30,NE,40,0.0,3.0,60,0.00,,,0.00,Wunderground PWS Mod,2013-11-21 21:20:00,
2013-11-21 16:25:00,60.7,46.7,30.30,NE,40,0.0,3.0,60,0.00,,,0.00,Wunderground PWS Mod,2013-11-21 21:25:00,
2013-11-21 16:30:00,60.7,46.7,30.30,NE,40,0.0,3.0,60,0.00,,,0.00,Wunderground PWS Mod,2013-11-21 21:30:00,
2013-11-21 16:35:00,60.7,46.7,30.30,NE,40,0.0,3.0,60,0.00,,,0.00,Wunderground PWS Mod,2013-11-21 21:35:00,
2013-11-21 16:40:00,60.7,46.7,30.30,NE,40,0.0,3.0,60,0.00,,,0.00,Wunderground PWS Mod,2013-11-21 21:40:00,
2013-11-21 16:45:00,59.9,46.8,30.31,NNE,30,0.0,1.0,62,0.00,,,0.00,Wunderground PWS Mod,2013-11-21 21:45:00,
2013-11-21 16:50:00,59.9,46.8,30.31,NNE,30,0.0,1.0,62,0.00,,,0.00,Wunderground PWS Mod,2013-11-21 21:50:00,
2013-11-21 16:55:00,59.9,46.8,30.31,NNE,30,0.0,1.0,62,0.00,,,0.00,Wunderground PWS Mod,2013-11-21 21:55:00,
2013-11-21 17:00:00,59.9,46.8,30.31,NNE,30,0.0,1.0,62,0.00,,,0.00,Wunderground PWS Mod,2013-11-21 22:00:00,
2013-11-21 17:05:00,59.9,46.8,30.31,NNE,30,0.0,1.0,62,0.00,,,0.00,Wunderground PWS Mod,2013-11-21 22:05:00,
2013-11-21 17:10:00,59.9,46.8,30.31,NNE,30,0.0,1.0,62,0.00,,,0.00,Wunderground PWS Mod,2013-11-21 22:10:00,
2013-11-21 17:15:00,58.6,46.9,30.30,NNE,30,0.0,3.0,65,0.00,,,0.00,Wunderground PWS Mod,2013-11-21 22:15:00,
2013-11-21 17:20:00,58.6,46.9,30.30,NNE,30,0.0,3.0,65,0.00,,,0.00,Wunderground PWS Mod,2013-11-21 22:20:00,
2013-11-21 17:25:00,58.6,46.9,30.30,NNE,30,0.0,3.0,65,0.00,,,0.00,Wunderground PWS Mod,2013-11-21 22:25:00,
2013-11-21 17:30:00,58.6,46.9,30.30,NNE,30,0.0,3.0,65,0.00,,,0.00,Wunderground PWS Mod,2013-11-21 22:30:00,
2013-11-21 17:35:00,58.6,46.9,30.30,NNE,30,0.0,3.0,65,0.00,,,0.00,Wunderground PWS Mod,2013-11-21 22:35:00,
2013-11-21 17:40:00,58.6,46.9,30.30,NNE,30,0.0,3.0,65,0.00,,,0.00,Wunderground PWS Mod,2013-11-21 22:40:00,
2013-11-21 17:45:00,57.6,46.7,30.31,NNE,30,0.0,1.0,67,0.00,,,0.00,Wunderground PWS Mod,2013-11-21 22:45:00,
2013-11-21 17:50:00,57.6,46.7,30.31,NNE,30,0.0,1.0,67,0.00,,,0.00,Wunderground PWS Mod,2013-11-21 22:50:00,
2013-11-21 17:55:00,57.6,46.7,30.31,NNE,30,0.0,1.0,67,0.00,,,0.00,Wunderground PWS Mod,2013-11-21 22:55:00,
2013-11-21 18:00:00,57.6,46.7,30.31,NNE,30,0.0,1.0,67,0.00,,,0.00,Wunderground PWS Mod,2013-11-21 23:00:00,
2013-11-21 18:05:00,57.6,46.7,30.31,NNE,30,0.0,1.0,67,0.00,,,0.00,Wunderground PWS Mod,2013-11-21 23:05:00,
2013-11-21 18:10:00,57.6,46.7,30.31,NNE,30,0.0,1.0,67,0.00,,,0.00,Wunderground PWS Mod,2013-11-21 23:10:00,
2013-11-21 18:15:00,57.2,47.1,30.32,NNE,30,0.0,1.0,69,0.00,,,0.00,Wunderground PWS Mod,2013-11-21 23:15:00,
2013-11-21 18:20:00,57.2,47.1,30.32,NNE,30,0.0,1.0,69,0.00,,,0.00,Wunderground PWS Mod,2013-11-21 23:20:00,
2013-11-21 18:25:00,57.2,47.1,30.32,NNE,30,0.0,1.0,69,0.00,,,0.00,Wunderground PWS Mod,2013-11-21 23:25:00,
2013-11-21 18:30:00,57.2,47.1,30.32,NNE,30,0.0,1.0,69,0.00,,,0.00,Wunderground PWS Mod,2013-11-21 23:30:00,
2013-11-21 18:35:00,57.2,47.1,30.32,NNE,30,0.0,1.0,69,0.00,,,0.00,Wunderground PWS Mod,2013-11-21 23:35:00,
2013-11-21 18:40:00,57.2,47.1,30.32,NNE,30,0.0,1.0,69,0.00,,,0.00,Wunderground PWS Mod,2013-11-21 23:40:00,
2013-11-21 18:45:00,57.0,47.7,30.32,NNE,30,0.0,1.0,71,0.00,,,0.00,Wunderground PWS Mod,2013-11-21 23:45:00,
2013-11-21 18:50:00,57.0,47.7,30.32,NNE,30,0.0,1.0,71,0.00,,,0.00,Wunderground PWS Mod,2013-11-21 23:50:00,
2013-11-21 18:55:00,57.0,47.7,30.32,NNE,30,0.0,1.0,71,0.00,,,0.00,Wunderground PWS Mod,2013-11-21 23:55:00,
2013-11-21 19:00:00,57.0,47.7,30.32,NNE,30,0.0,1.0,71,0.00,,,0.00,Wunderground PWS Mod,2013-11-22 00:00:00,
2013-11-21 19:05:00,57.0,47.7,30.32,NNE,30,0.0,1.0,71,0.00,,,0.00,Wunderground PWS Mod,2013-11-22 00:05:00,
2013-11-21 19:10:00,57.0,47.7,30.32,NNE,30,0.0,1.0,71,0.00,,,0.00,Wunderground PWS Mod,2013-11-22 00:10:00,
2013-11-21 19:15:00,56.6,47.7,30.32,N/A,-327680,0.0,0.0,72,0.00,,,0.00,Wunderground PWS Mod,2013-11-22 00:15:00,
2013-11-21 19:20:00,56.6,47.7,30.32,N/A,-327680,0.0,0.0,72,0.00,,,0.00,Wunderground PWS Mod,2013-11-22 00:20:00,
2013-11-21 19:25:00,56.6,47.7,30.32,N/A,-327680,0.0,0.0,72,0.00,,,0.00,Wunderground PWS Mod,2013-11-22 00:25:00,
2013-11-21 19:30:00,56.6,47.7,30.32,N/A,-327680,0.0,0.0,72,0.00,,,0.00,Wunderground PWS Mod,2013-11-22 00:30:00,
2013-11-21 19:35:00,56.6,47.7,30.32,N/A,-327680,0.0,0.0,72,0.00,,,0.00,Wunderground PWS Mod,2013-11-22 00:35:00,
2013-11-21 19:40:00,56.6,47.7,30.32,N/A,-327680,0.0,0.0,72,0.00,,,0.00,Wunderground PWS Mod,2013-11-22 00:40:00,
2013-11-21 19:45:00,56.3,47.8,30.32,NNE,30,0.0,1.0,73,0.00,,,0.00,Wunderground PWS Mod,2013-11-22 00:45:00,
2013-11-21 19:50:00,56.3,47.8,30.32,NNE,30,0.0,1.0,73,0.00,,,0.00,Wunderground PWS Mod,2013-11-22 00:50:00,
2013-11-21 19:55:00,56.3,47.8,30.32,NNE,30,0.0,1.0,73,0.00,,,0.00,Wunderground PWS Mod,2013-11-22 00:55:00,
2013-11-21 20:00:00,56.3,47.8,30.32,NNE,30,0.0,1.0,73,0.00,,,0.00,Wunderground PWS Mod,2013-11-22 01:00:00,
2013-11-21 20:05:00,56.3,47.8,30.32,NNE,30,0.0,1.0,73,0.00,,,0.00,Wunderground PWS Mod,2013-11-22 01:05:00,
2013-11-21 20:10:00,56.3,47.8,30.32,NNE,30,0.0,1.0,73,0.00,,,0.00,Wunderground PWS Mod,2013-11-22 01:10:00,
2013-11-21 20:15:00,56.3,47.8,30.32,NNE,30,0.0,1.0,73,0.00,,,0.00,Wunderground PWS Mod,2013-11-22 01:15:00,
2013-11-21 20:20:00,56.3,47.8,30.32,NNE,30,0.0,1.0,73,0.00,,,0.00,Wunderground PWS Mod,2013-11-22 01:20:00,
2013-11-21 20:25:00,56.3,47.8,30.32,NNE,30,0.0,1.0,73,0.00,,,0.00,Wunderground PWS Mod,2013-11-22 01:25:00,
2013-11-21 20:30:00,56.3,47.8,30.32,NNE,30,0.0,1.0,73,0.00,,,0.00,Wunderground PWS Mod,2013-11-22 01:30:00,
2013-11-21 20:35:00,56.3,47.8,30.32,NNE,30,0.0,1.0,73,0.00,,,0.00,Wunderground PWS Mod,2013-11-22 01:35:00,
2013-11-21 20:40:00,56.3,47.8,30.32,NNE,30,0.0,1.0,73,0.00,,,0.00,Wunderground PWS Mod,2013-11-22 01:40:00,
2013-11-21 20:45:00,55.7,47.9,30.32,NNE,30,0.0,1.0,75,0.00,,,0.00,Wunderground PWS Mod,2013-11-22 01:45:00,
2013-11-21 20:50:00,55.7,47.9,30.32,NNE,30,0.0,1.0,75,0.00,,,0.00,Wunderground PWS Mod,2013-11-22 01:50:00,
2013-11-21 20:55:00,55.7,47.9,30.32,NNE,30,0.0,1.0,75,0.00,,,0.00,Wunderground PWS Mod,2013-11-22 01:55:00,
2013-11-21 21:00:00,55.7,47.9,30.32,NNE,30,0.0,1.0,75,0.00,,,0.00,Wunderground PWS Mod,2013-11-22 02:00:00,
2013-11-21 21:05:00,55.7,47.9,30.32,NNE,30,0.0,1.0,75,0.00,,,0.00,Wunderground PWS Mod,2013-11-22 02:05:00,
2013-11-21 21:10:00,55.7,47.9,30.32,NNE,30,0.0,1.0,75,0.00,,,0.00,Wunderground PWS Mod,2013-11-22 02:10:00,
2013-11-21 21:15:00,55.0,47.6,30.33,N/A,-327680,0.0,0.0,76,0.00,,,0.00,Wunderground PWS Mod,2013-11-22 02:15:00,
2013-11-21 21:20:00,55.0,47.6,30.33,N/A,-327680,0.0,0.0,76,0.00,,,0.00,Wunderground PWS Mod,2013-11-22 02:20:00,
2013-11-21 21:25:00,55.0,47.6,30.33,N/A,-327680,0.0,0.0,76,0.00,,,0.00,Wunderground PWS Mod,2013-11-22 02:25:00,
2013-11-21 21:30:00,55.0,47.6,30.33,N/A,-327680,0.0,0.0,76,0.00,,,0.00,Wunderground PWS Mod,2013-11-22 02:30:00,
2013-11-21 21:35:00,55.0,47.6,30.33,N/A,-327680,0.0,0.0,76,0.00,,,0.00,Wunderground PWS Mod,2013-11-22 02:35:00,
2013-11-21 21:40:00,55.0,47.6,30.33,N/A,-327680,0.0,0.0,76,0.00,,,0.00,Wunderground PWS Mod,2013-11-22 02:40:00,
2013-11-21 21:45:00,54.7,47.6,30.33,N/A,-327680,0.0,0.0,77,0.00,,,0.00,Wunderground PWS Mod,2013-11-22 02:45:00,
2013-11-21 21:50:00,54.7,47.6,30.33,N/A,-327680,0.0,0.0,77,0.00,,,0.00,Wunderground PWS Mod,2013-11-22 02:50:00,
2013-11-21 21:55:00,54.7,47.6,30.33,N/A,-327680,0.0,0.0,77,0.00,,,0.00,Wunderground PWS Mod,2013-11-22 02:55:00,
2013-11-21 22:00:00,54.7,47.6,30.33,N/A,-327680,0.0,0.0,77,0.00,,,0.00,Wunderground PWS Mod,2013-11-22 03:00:00,
2013-11-21 22:05:00,54.7,47.6,30.33,N/A,-327680,0.0,0.0,77,0.00,,,0.00,Wunderground PWS Mod,2013-11-22 03:05:00,
2013-11-21 22:10:00,54.7,47.6,30.33,N/A,-327680,0.0,0.0,77,0.00,,,0.00,Wunderground PWS Mod,2013-11-22 03:10:00,
2013-11-21 22:15:00,54.5,47.8,30.33,N/A,-327680,0.0,0.0,78,0.00,,,0.00,Wunderground PWS Mod,2013-11-22 03:15:00,
2013-11-21 22:20:00,54.5,47.8,30.33,N/A,-327680,0.0,0.0,78,0.00,,,0.00,Wunderground PWS Mod,2013-11-22 03:20:00,
2013-11-21 22:25:00,54.5,47.8,30.33,N/A,-327680,0.0,0.0,78,0.00,,,0.00,Wunderground PWS Mod,2013-11-22 03:25:00,
2013-11-21 22:30:00,54.5,47.8,30.33,N/A,-327680,0.0,0.0,78,0.00,,,0.00,Wunderground PWS Mod,2013-11-22 03:30:00,
2013-11-21 22:35:00,54.5,47.8,30.33,N/A,-327680,0.0,0.0,78,0.00,,,0.00,Wunderground PWS Mod,2013-11-22 03:35:00,
2013-11-21 22:40:00,54.5,47.8,30.33,N/A,-327680,0.0,0.0,78,0.00,,,0.00,Wunderground PWS Mod,2013-11-22 03:40:00,
2013-11-21 22:45:00,54.4,48.0,30.32,NNE,30,0.0,2.0,79,0.00,,,0.00,Wunderground PWS Mod,2013-11-22 03:45:00,
2013-11-21 22:50:00,54.4,48.0,30.32,NNE,30,0.0,2.0,79,0.00,,,0.00,Wunderground PWS Mod,2013-11-22 03:50:00,
2013-11-21 22:55:00,54.4,48.0,30.32,NNE,30,0.0,2.0,79,0.00,,,0.00,Wunderground PWS Mod,2013-11-22 03:55:00,
2013-11-21 23:00:00,54.4,48.0,30.32,NNE,30,0.0,2.0,79,0.00,,,0.00,Wunderground PWS Mod,2013-11-22 04:00:00,
2013-11-21 23:05:00,54.4,48.0,30.32,NNE,30,0.0,2.0,79,0.00,,,0.00,Wunderground PWS Mod,2013-11-22 04:05:00,
2013-11-21 23:10:00,54.4,48.0,30.32,NNE,30,0.0,2.0,79,0.00,,,0.00,Wunderground PWS Mod,2013-11-22 04:10:00,
2013-11-21 23:15:00,53.9,47.5,30.31,NNE,30,0.0,2.0,79,0.00,,,0.00,Wunderground PWS Mod,2013-11-22 04:15:00,
2013-11-21 23:20:00,53.9,47.5,30.31,NNE,30,0.0,2.0,79,0.00,,,0.00,Wunderground PWS Mod,2013-11-22 04:20:00,
2013-11-21 23:25:00,53.9,47.5,30.31,NNE,30,0.0,2.0,79,0.00,,,0.00,Wunderground PWS Mod,2013-11-22 04:25:00,
2013-11-21 23:30:00,53.9,47.5,30.31,NNE,30,0.0,2.0,79,0.00,,,0.00,Wunderground PWS Mod,2013-11-22 04:30:00,
2013-11-21 23:35:00,53.9,47.5,30.31,NNE,30,0.0,2.0,79,0.00,,,0.00,Wunderground PWS Mod,2013-11-22 04:35:00,
2013-11-21 23:40:00,53.9,47.5,30.31,NNE,30,0.0,2.0,79,0.00,,,0.00,Wunderground PWS Mod,2013-11-22 04:40:00,
2013-11-21 23:45:00,53.3,47.3,30.31,NNE,30,0.0,2.0,80,0.00,,,0.00,Wunderground PWS Mod,2013-11-22 04:45:00,
2013-11-21 23:50:00,53.3,47.3,30.31,NNE,30,0.0,2.0,80,0.00,,,0.00,Wunderground PWS Mod,2013-11-22 04:50:00,
2013-11-21 23:55:00,53.3,47.3,30.31,NNE,30,0.0,2.0,80,0.00,,,0.00,Wunderground PWS Mod,2013-11-22 04:55:00,